Regional Weather Roundup
Issued by NWS

Home | Current Version | Previous Version | Graphics & Text | Print | Product List | Glossary On
Versions: 1 2 3 4 5 6 7 8 9 10 11 12 13 14 15 16 17 18 19 20 21 22 23 24 25 26 27 28 29 30 31 32 33 34 35 36 37 38 39 40 41 42 43 44 45 46 47 48 49 50
000
ASUS45 KCYS 051010
RWRWY

WYOMING REGIONAL WEATHER ROUNDUP
NATIONAL WEATHER SERVICE CHEYENNE WY
400 AM MDT TUE MAY 05 2015

NOTE:  "FAIR" INDICATES FEW OR NO CLOUDS BELOW 12,000 FEET
WITH NO SIGNIFICANT WEATHER AND/OR OBSTRUCTIONS TO VISIBILITY.

WYZ001-051100-
YELLOWSTONE NATIONAL PARK

CITY           SKY/WX    TMP DP  RH WIND       PRES   REMARKS
LK YELLOWSTONE   N/A     29  26  89 NW3       30.05F
W YELLOWSTONE  NOT AVBL

$$
WYZ002>013-054>058-071-098>099-051100-
NORTHERN WYOMING

CITY           SKY/WX    TMP DP  RH WIND       PRES   REMARKS
JACKSON        FAIR      39  34  81 NW3       29.99S
CODY           FAIR      48  39  71 SE5       29.89S
GREYBULL       FAIR      54  41  61 E3        29.87S
WORLAND        FAIR      51  42  71 SW5       29.87F
SHERIDAN       FAIR      42  39  89 W5        29.88S
BUFFALO        FAIR      45  41  86 S7        29.91S
GILLETTE       FAIR      44  35  70 S18       29.94F
HULETT         FAIR      48  34  57 SW5       29.97F
NEWCASTLE      PTSUNNY   46  32  57 SE12      30.03S

$$
WYZ014>020-022>026-101>103-051100-
CENTRAL WYOMING

CITY           SKY/WX    TMP DP  RH WIND       PRES   REMARKS
BIG PINEY      MOCLDY    40  37  89 N5        30.01F
PINEDALE       PTSUNNY   37  36  93 NW7       30.02S WCI  32
DUBOIS         CLOUDY    37  32  81 W12       30.01S WCI  30
LANDER         FAIR      50  38  63 W12       29.92F
RIVERTON       FAIR      48  39  71 W7        29.95S
CASPER         FAIR      35  32  88 CALM      29.95F
DOUGLAS        CLOUDY    45  43  93 SE15      29.99S FOG

$$
WYZ021-027>030-104>119-051100-
SOUTHERN WYOMING

CITY           SKY/WX    TMP DP  RH WIND       PRES   REMARKS
EVANSTON       FAIR      43  36  76 E3        29.98F
KEMMERER       FAIR      41  37  87 N9        29.99F
FORT BRIDGER   SUNNY     43  43 100 CALM      30.01F
ROCK SPRINGS   FAIR      43  36  76 CALM      29.98F
DIXON          FAIR      37  34  88 E3        30.00S
RAWLINS        FAIR      41  39  93 NE8       29.99F FOG
SARATOGA       FAIR      34  32  93 SE3       30.00F
LARAMIE        CLOUDY    41  40  96 SE18      30.01F
CHEYENNE       FOG       44  43  96 S8        30.03F VSB 1/4
TORRINGTON     CLOUDY    47  43  86 SE9       30.02S
PINE BLUFFS    FOG       43  43 100 SE6       30.04F VSB 3/4

$$



USA.gov is the U.S. government's official web portal to all federal, state and local government web resources and services.